Погода в Марьяновке

Украина / Житомирская область     50°18′17″N   27°52′24″E
темп.,
°C
ветер,
м/с
пор.,
м/с
влажн.,
%
обл.,
%
осадки,
мм/ч
давл.,
гПа
погр.,
м
27 сентября, пн
пн2700:00+9с238546 0.0 102336
03:00+8ссв229117 0.0 102331
06:00+6св24955 0.0 102472
09:00+8всв35815 0.0 1024276
12:00+13всв34550 0.0 1024912
15:00+15св34490 0.0 10231211
18:00+13всв36600 0.0 1023299
21:00+8всв310800 0.0 1024232
28 сентября, вт
вт2800:00+6в38880 0.0 1025178
03:00+5в24920 0.0 102577
06:00+5в23905 0.0 102541
09:00+8в35765 0.0 1026209
12:00+13в45550 0.0 10261171
15:00+15всв4448100 0.0 10251765
18:00+12всв3555100 0.0 1026142
21:00+11всв3555100 0.0 1028121
29 сентября, ср
ср2900:00+10всв3768100 0.0 1029231
03:00+9всв2678100 0.0 1029182
06:00+9в3786100 0.0 1029247
09:00+9в4886100 0.1 1030368
12:00+11вюв566865 0.0 1031800
15:00+13вюв555384 0.1 10301363
18:00+12в475685 0.0 1030560
21:00+9вюв511695 0.0 1031318
30 сентября, чт
чт3000:00+7вюв511715 0.0 1032358
03:00+5вюв310792 0.0 1032238
06:00+4юв39840 0.0 1032201
09:00+7юв48694 0.0 1032296
12:00+13ююв56495 0.0 10311075
15:00+15ююв56414 0.0 10301448
18:00+13юв36520 0.0 1030132
21:00+8юв37585 0.0 1031106
1 октября, пт
пт100:00+7юв38565 0.0 1032143
03:00+6ююв385984 0.0 1032128
06:00+5юв3760100 0.0 1032131
09:00+8ююв3854100 0.0 1032228
12:00+13ююв5739100 0.0 1031764
15:00+15ююв5633100 0.0 10301274
18:00+12юв3546100 0.0 1029110
21:00+9юв3753100 0.0 1030118